Vancleve, KY

10:45 PM EST on February 25, 2017 (GMT -0500)
Carroll

Weather History for KJKL - November, 2011

Change the Weather History Date:

Thursday, November 3, 2011

  Actual Average Record
Temperature  
Mean Temperature 57 °F 53 °F  
Max Temperature 66 °F 63 °F 81 °F (2003)
Min Temperature 48 °F 43 °F 23 °F (1991)
Degree Days  
Heating Degree Days 8 12  
Month to date heating degree days 33 36  
Since 1 July heating degree days 366 333  
Cooling Degree Days 0 0  
Month to date cooling degree days 0 0  
Year to date cooling degree days 1252 1150  
Growing Degree Days 5 (Base 50)    
Moisture  
Dew Point 43 °F    
Average Humidity 66    
Maximum Humidity 93    
Minimum Humidity 39    
Precipitation  
Precipitation 0.66 in 0.13 in 1.47 in (1998)
Month to date precipitation 0.66 0.38  
Year to date precipitation 51.01 40.58  
Snow  
Snow 0.00 in 0.00 in T in (1999)
Month to date snowfall 0.0 0.0  
Since 1 July snowfall T 0.1  
Since 1 September snowfall T 0.1  
Snow Depth 0.00 in    
Sea Level Pressure  
Sea Level Pressure 29.95 in    
Wind  
Wind Speed 3 mph (SSE)    
Max Wind Speed 10 mph    
Max Gust Speed 20 mph    
Visibility 7 miles    
Events Fog , Rain    
T = Trace of Precipitation, MM = Missing Value Source: NWS Daily Summary

Daily Weather History Graph

Daily Weather History Graph

Search for Another Location

Airport or City:

Trip Planner

Search our weather history database for the weather conditions in past years. The results will help you decide how hot, cold, wet, or windy it might be!

Date:

Astronomy

Nov. 03, 2011 Rise Set
Actual Time 8:00 AM EDT 6:33 PM EDT
Civil Twilight 7:32 AM EDT 7:00 PM EDT
Nautical Twilight 7:01 AM EDT 7:31 PM EDT
Astronomical Twilight 6:31 AM EDT 8:01 PM EDT
Moon 2:49 PM EDT (11/3) 1:19 AM EDT (11/3)
Length of Visible Light 11h 27m
Length of Day
10h 32m
First Quarter, 60% of the Moon is Illuminated
Nov 3
First Quarter
Nov 10
Full
Nov 18
Last Quarter
Nov 25
New
Dec 2
First Quarter

Hourly Weather History & Observations

Time (EDT) Temp. Dew Point Humidity Pressure Visibility Wind Dir Wind Speed Gust Speed Precip Events Conditions
12:53 AM 53.1 °F 33.1 °F 47% 30.12 in 10.0 mi SSW 4.6 mph - N/A   Clear
1:53 AM 54.0 °F 33.1 °F 45% 30.10 in 10.0 mi Variable 5.8 mph - N/A   Clear
2:53 AM 53.1 °F 34.0 °F 48% 30.10 in 10.0 mi SSW 4.6 mph - N/A   Clear
3:53 AM 50.0 °F 34.0 °F 54% 30.11 in 10.0 mi Calm Calm - N/A   Clear
4:53 AM 48.9 °F 34.0 °F 56% 30.09 in 10.0 mi South 3.5 mph - N/A   Clear
5:53 AM 50.0 °F 33.1 °F 52% 30.07 in 10.0 mi South 3.5 mph - N/A   Clear
6:53 AM 48.9 °F 32.0 °F 52% 30.06 in 10.0 mi South 4.6 mph - N/A   Clear
7:53 AM 48.9 °F 30.9 °F 50% 30.04 in 10.0 mi Variable 4.6 mph - N/A   Clear
8:53 AM 51.1 °F 32.0 °F 48% 30.05 in 10.0 mi SSE 4.6 mph - N/A   Clear
9:53 AM 53.1 °F 33.1 °F 47% 30.05 in 10.0 mi Calm Calm - N/A   Clear
10:53 AM 55.9 °F 33.1 °F 42% 30.02 in 10.0 mi Variable 3.5 mph - N/A   Clear
11:53 AM 62.1 °F 37.9 °F 41% 29.99 in 10.0 mi Variable 5.8 mph - N/A   Clear
12:53 PM 62.1 °F 39.9 °F 44% 29.96 in 10.0 mi Variable 3.5 mph - N/A   Clear
1:53 PM 62.1 °F 39.9 °F 44% 29.93 in 10.0 mi Variable 5.8 mph - N/A   Scattered Clouds
2:53 PM 57.2 °F 42.8 °F 59% 29.92 in 6.0 mi Calm Calm - N/A Rain Rain
3:53 PM 53.1 °F 48.0 °F 83% 29.89 in 5.0 mi Calm Calm - 0.08 in Rain Light Rain
4:34 PM 51.8 °F 48.2 °F 88% 29.88 in 1.5 mi Calm Calm - 0.08 in Rain Rain
4:53 PM 51.8 °F 48.2 °F 88% 29.88 in 1.5 mi Calm Calm - N/A Rain Rain
4:56 PM 51.8 °F 48.2 °F 88% 29.88 in 2.0 mi East 4.6 mph - 0.01 in Rain Rain
5:15 PM 51.8 °F 48.2 °F 88% 29.89 in 1.5 mi NE 3.5 mph - 0.08 in Rain Heavy Rain
5:24 PM 51.8 °F 48.2 °F 88% 29.88 in 0.2 mi Calm Calm - 0.12 in Fog , Rain Rain
5:53 PM 51.1 °F 48.9 °F 92% 29.91 in 0.5 mi West 4.6 mph - 0.24 in Fog , Rain Heavy Rain
5:58 PM 51.8 °F 48.2 °F 88% 29.91 in 0.8 mi Calm Calm - N/A Rain Heavy Rain
6:01 PM 51.8 °F 48.2 °F 88% 29.90 in 1.2 mi East 4.6 mph - 0.05 in Rain Heavy Rain
6:11 PM 51.8 °F 48.2 °F 88% 29.87 in 0.2 mi Calm Calm - 0.09 in Fog , Rain Rain
6:20 PM 51.8 °F 48.2 °F 88% 29.86 in 1.0 mi Variable 4.6 mph - 0.11 in Rain Rain
6:23 PM 51.8 °F 48.2 °F 88% 29.86 in 3.0 mi Variable 6.9 mph - 0.12 in Rain Rain
6:53 PM 51.1 °F 48.0 °F 89% 29.86 in 5.0 mi Variable 4.6 mph - 0.16 in Rain Light Rain
7:53 PM 51.1 °F 48.0 °F 89% 29.88 in 10.0 mi Variable 3.5 mph - 0.02 in   Overcast
8:18 PM 51.8 °F 48.2 °F 88% 29.89 in 10.0 mi Variable 5.8 mph - N/A   Overcast
8:37 PM 51.8 °F 48.2 °F 88% 29.89 in 10.0 mi ESE 4.6 mph - N/A   Overcast
8:53 PM 50.0 °F 48.0 °F 93% 29.87 in 9.0 mi Calm Calm - N/A   Mostly Cloudy
9:04 PM 50.0 °F 48.2 °F 94% 29.88 in 10.0 mi Calm Calm - N/A   Mostly Cloudy
9:20 PM 51.8 °F 48.2 °F 88% 29.89 in 10.0 mi Calm Calm - N/A   Overcast
9:53 PM 50.0 °F 46.4 °F 87% 29.88 in 9.0 mi Calm Calm - N/A   Mostly Cloudy
10:53 PM 50.0 °F 46.9 °F 89% 29.87 in 10.0 mi Calm Calm - 0.00 in   Mostly Cloudy
11:53 PM 50.0 °F 46.9 °F 89% 29.86 in 6.0 mi Calm Calm - N/A   Overcast